When you browse on this site, cookies collect data to enhance your experience and personalize the content and advertising you see.
Visit our Privacy Policy to learn more. By continuing to use the site, you agree to this use of cookies and data.
  • In Lithuania
  • List of Countries
  • For 7 days
  • Water Temperature
  • Weather Map
  • Weather Widgets
  • user-avatar
    Login

    Hourly Weather Thimphu

    Today, 18 February, Tuesday

    Time Temperature Precipitation Wind Pressure Humidity
    00:00 +1°C° 0 mm 1 mps 520 mmHg 91%
    01:00 0°C° 0 mm 1 mps 519 mmHg 90%
    02:00 0°C° 0 mm 1 mps 519 mmHg 89%
    03:00 0°C° 0 mm 1 mps 519 mmHg 88%
    04:00 0°C° 0 mm 1 mps 519 mmHg 85%
    05:00 -1°C° 0 mm 1 mps 519 mmHg 82%
    06:00 0°C° 0 mm 1 mps 519 mmHg 80%
    07:00 +2°C° 0 mm 1 mps 521 mmHg 72%
    08:00 +4°C° 0 mm 1 mps 523 mmHg 64%
    09:00 +7°C° 0 mm 1 mps 525 mmHg 55%
    10:00 +9°C° 0 mm 1 mps 525 mmHg 50%
    11:00 +9°C° 0 mm 2 mps 526 mmHg 45%
    12:00 +12°C° 0 mm 2 mps 527 mmHg 40%
    13:00 +10°C° 0.2 mm 2 mps 526 mmHg 44%
    14:00 +10°C° 0.2 mm 2 mps 526 mmHg 48%
    15:00 +10°C° 0.2 mm 2 mps 525 mmHg 53%
    16:00 +7°C° 0.3 mm 2 mps 523 mmHg 66%
    17:00 +6°C° 0.3 mm 1 mps 522 mmHg 79%
    18:00 +4°C° 0.3 mm 1 mps 521 mmHg 92%
    19:00 +2°C° 0.1 mm 0 mps 521 mmHg 91%
    20:00 +2°C° 0.1 mm 0 mps 522 mmHg 89%
    21:00 +2°C° 0.1 mm 0 mps 522 mmHg 87%
    22:00 +2°C° 0.1 mm 0 mps 522 mmHg 88%
    23:00 +2°C° 0.1 mm 0 mps 522 mmHg 88%

    Tomorrow, 19 February, Wednesday

    Time Temperature Precipitation Wind Pressure Humidity
    00:00 +3°C° 0.1 mm 1 mps 522 mmHg 89%
    01:00 +2°C° 0.2 mm 1 mps 522 mmHg 89%
    02:00 +1°C° 0.2 mm 0 mps 522 mmHg 89%
    03:00 +1°C° 0.2 mm 0 mps 521 mmHg 90%
    04:00 +1°C° 0.1 mm 0 mps 521 mmHg 89%
    05:00 +1°C° 0.1 mm 1 mps 521 mmHg 88%
    06:00 +1°C° 0.1 mm 1 mps 521 mmHg 87%
    07:00 +3°C° 0 mm 1 mps 522 mmHg 79%
    08:00 +4°C° 0 mm 0 mps 524 mmHg 71%
    09:00 +5°C° 0 mm 0 mps 525 mmHg 64%
    10:00 +7°C° 0.1 mm 1 mps 525 mmHg 60%
    11:00 +8°C° 0.1 mm 1 mps 526 mmHg 56%
    12:00 +9°C° 0.1 mm 2 mps 526 mmHg 53%
    13:00 +8°C° 0.2 mm 2 mps 525 mmHg 57%
    14:00 +8°C° 0.2 mm 2 mps 525 mmHg 62%
    15:00 +8°C° 0.2 mm 2 mps 524 mmHg 67%
    16:00 +6°C° 0.3 mm 2 mps 523 mmHg 75%
    17:00 +5°C° 0.3 mm 1 mps 522 mmHg 84%
    18:00 +4°C° 0.3 mm 1 mps 521 mmHg 92%
    19:00 +4°C° 0.2 mm 1 mps 522 mmHg 93%
    20:00 +3°C° 0.2 mm 1 mps 522 mmHg 94%
    21:00 +2°C° 0.2 mm 0 mps 523 mmHg 95%
    22:00 +2°C° 0.2 mm 0 mps 522 mmHg 94%
    23:00 +1°C° 0.2 mm 0 mps 522 mmHg 94%

    Day after tomorrow, 20 February, Thursday

    Time Temperature Precipitation Wind Pressure Humidity
    00:00 +2°C° 0.2 mm 1 mps 522 mmHg 93%
    01:00 +2°C° 0 mm 1 mps 521 mmHg 92%
    02:00 +1°C° 0 mm 1 mps 521 mmHg 90%
    03:00 +1°C° 0 mm 1 mps 521 mmHg 89%
    04:00 +1°C° 0 mm 1 mps 520 mmHg 88%
    05:00 0°C° 0 mm 1 mps 520 mmHg 88%
    06:00 0°C° 0 mm 1 mps 520 mmHg 87%
    07:00 +2°C° 0 mm 1 mps 522 mmHg 82%
    08:00 +4°C° 0 mm 1 mps 523 mmHg 76%
    09:00 +6°C° 0 mm 1 mps 525 mmHg 71%
    10:00 +6°C° 0.1 mm 1 mps 525 mmHg 71%
    11:00 +6°C° 0.1 mm 2 mps 525 mmHg 71%
    12:00 +7°C° 0.1 mm 2 mps 525 mmHg 71%
    13:00 +6°C° 0.2 mm 2 mps 524 mmHg 73%
    14:00 +6°C° 0.2 mm 2 mps 523 mmHg 75%
    15:00 +6°C° 0.2 mm 2 mps 523 mmHg 78%
    16:00 +5°C° 0.2 mm 2 mps 522 mmHg 83%
    17:00 +5°C° 0.2 mm 1 mps 522 mmHg 89%
    18:00 +3°C° 0.2 mm 1 mps 522 mmHg 95%
    19:00 +3°C° 0.1 mm 1 mps 522 mmHg 95%
    20:00 +2°C° 0.1 mm 0 mps 522 mmHg 95%
    21:00 +2°C° 0.1 mm 0 mps 523 mmHg 95%
    22:00 +1°C° 0 mm 0 mps 523 mmHg 94%
    23:00 +1°C° 0 mm 0 mps 523 mmHg 93%

    21 February, Friday

    Time Temperature Precipitation Wind Pressure Humidity
    00:00 +1°C° 0 mm 0 mps 523 mmHg 92%
    01:00 +2°C° 0 mm 1 mps 522 mmHg 90%
    02:00 +2°C° 0 mm 1 mps 522 mmHg 87%
    03:00 +1°C° 0 mm 1 mps 522 mmHg 85%
    04:00 +1°C° 0 mm 1 mps 522 mmHg 84%
    05:00 0°C° 0 mm 1 mps 521 mmHg 84%
    06:00 -1°C° 0 mm 0 mps 521 mmHg 83%
    07:00 +1°C° 0 mm 0 mps 523 mmHg 78%
    08:00 +3°C° 0 mm 0 mps 525 mmHg 74%
    09:00 +6°C° 0 mm 1 mps 527 mmHg 69%
    10:00 +7°C° 0 mm 1 mps 527 mmHg 67%
    11:00 +7°C° 0 mm 2 mps 527 mmHg 65%
    12:00 +8°C° 0 mm 2 mps 528 mmHg 64%
    19:00 +3°C° 0.1 mm 1 mps 524 mmHg 93%
    20:00 +2°C° 0.1 mm 0 mps 524 mmHg 93%
    21:00 +1°C° 0.1 mm 0 mps 524 mmHg 93%
    22:00 +1°C° 0.1 mm 0 mps 524 mmHg 92%
    23:00 +1°C° 0.1 mm 0 mps 524 mmHg 92%

    22 February, Saturday

    Time Temperature Precipitation Wind Pressure Humidity
    00:00 +1°C° 0.1 mm 0 mps 524 mmHg 92%
    01:00 +1°C° 0.1 mm 0 mps 523 mmHg 92%
    02:00 +1°C° 0.1 mm 1 mps 523 mmHg 92%
    03:00 +1°C° 0.1 mm 1 mps 522 mmHg 92%
    04:00 +1°C° 0 mm 1 mps 522 mmHg 92%
    05:00 +1°C° 0 mm 1 mps 522 mmHg 92%
    06:00 +1°C° 0 mm 1 mps 522 mmHg 92%
    07:00 +2°C° 0.1 mm 1 mps 523 mmHg 89%
    08:00 +3°C° 0.1 mm 1 mps 525 mmHg 85%
    09:00 +5°C° 0.1 mm 1 mps 526 mmHg 81%
    10:00 +5°C° 0.4 mm 1 mps 526 mmHg 81%
    11:00 +6°C° 0.4 mm 1 mps 526 mmHg 81%
    12:00 +5°C° 0.4 mm 2 mps 526 mmHg 81%
    13:00 +5°C° 0.6 mm 2 mps 525 mmHg 84%
    14:00 +4°C° 0.6 mm 2 mps 524 mmHg 87%
    15:00 +4°C° 0.6 mm 2 mps 523 mmHg 89%
    16:00 +4°C° 0.6 mm 1 mps 523 mmHg 92%
    17:00 +4°C° 0.6 mm 1 mps 522 mmHg 94%
    18:00 +3°C° 0.6 mm 1 mps 522 mmHg 97%
    19:00 +2°C° 0.8 mm 0 mps 523 mmHg 97%
    20:00 +1°C° 0.8 mm 0 mps 523 mmHg 97%
    21:00 +1°C° 0.8 mm 0 mps 523 mmHg 97%
    22:00 +1°C° 0.6 mm 0 mps 523 mmHg 97%
    23:00 +1°C° 0.6 mm 0 mps 523 mmHg 97%

    23 February, Sunday

    Time Temperature Precipitation Wind Pressure Humidity
    00:00 +1°C° 0.6 mm 0 mps 523 mmHg 97%
    01:00 +1°C° 0.6 mm 0 mps 523 mmHg 97%
    02:00 +1°C° 0.6 mm 0 mps 523 mmHg 97%
    03:00 +1°C° 0.6 mm 0 mps 522 mmHg 97%
    04:00 0°C° 0.2 mm 0 mps 522 mmHg 97%
    05:00 0°C° 0.2 mm 0 mps 522 mmHg 96%
    06:00 -1°C° 0.2 mm 0 mps 522 mmHg 96%
    07:00 0°C° 0.1 mm 0 mps 523 mmHg 93%
    08:00 +3°C° 0.1 mm 1 mps 524 mmHg 90%
    09:00 +4°C° 0.1 mm 1 mps 525 mmHg 87%
    10:00 +5°C° 0.3 mm 1 mps 525 mmHg 83%
    11:00 +6°C° 0.3 mm 1 mps 526 mmHg 78%
    12:00 +6°C° 0.3 mm 2 mps 526 mmHg 73%
    13:00 +6°C° 0.7 mm 2 mps 525 mmHg 75%
    14:00 +6°C° 0.7 mm 2 mps 524 mmHg 76%
    15:00 +6°C° 0.7 mm 2 mps 524 mmHg 77%
    16:00 +4°C° 0.6 mm 2 mps 523 mmHg 83%
    17:00 +4°C° 0.6 mm 1 mps 522 mmHg 89%
    18:00 +2°C° 0.6 mm 1 mps 521 mmHg 95%
    19:00 +2°C° 0.1 mm 1 mps 521 mmHg 94%
    20:00 +1°C° 0.1 mm 1 mps 521 mmHg 94%
    21:00 +1°C° 0.1 mm 1 mps 521 mmHg 93%
    22:00 0°C° 0 mm 1 mps 521 mmHg 92%
    23:00 0°C° 0 mm 1 mps 521 mmHg 90%
    Show more